{"data":{"norad_id":58679,"intl_designator":"2023-211N","name":"STARLINK-31110","alt_names":[],"object_type":"PAYLOAD","status":"ACTIVE","operator":null,"country":"US","launch_date":"2023-12-29","launch_site_code":"AFETR","launch_vehicle":null,"mission":null,"orbit_class":"UNKNOWN","rcs_meters":null,"size_class":null,"mass_kg":null,"dimensions":null,"purposes":["comms"],"wikipedia_slug":null,"has_3d_model":false,"image_url":null,"decayed_at":null,"tle_current":{"epoch":"2026-05-25T01:00:37.136736Z","epoch_age_seconds":74556,"freshness":"FRESH","line1":"1 58679U 23211N   26145.04209649  .00003918  00000+0  15181-3 0  9995","line2":"2 58679  43.0015  13.9157 0001548 276.9536  83.1140 15.27586443134147","mean_motion":15.27586443,"eccentricity":0.0001548,"inclination_deg":43.0015,"raan_deg":13.9157,"arg_perigee_deg":276.9536,"mean_anomaly_deg":83.114,"bstar":0.00015181,"rev_number":13414,"period_min":94.266351118697,"perigee_km":481.96769482643,"apogee_km":484.09191206878,"semimajor_km":6861.1668034476,"source":"CELESTRAK","updated_at":"2026-05-25T13:38:18.712433Z"}}}